Gillette, WY

10:17 AM MDT on March 24, 2017 (GMT -0600)
Gillette-Campbell County

Weather History for KGCC - March, 2012

Change the Weather History Date:

Thursday, March 22, 2012

  Actual Average Record
Temperature  
Mean Temperature 54 °F 36 °F  
Max Temperature 72 °F 49 °F 72 °F (1928)
Min Temperature 36 °F 24 °F 1 °F (1965)
Degree Days  
Heating Degree Days 11 29  
Month to date heating degree days 499 690  
Since 1 July heating degree days 5645 6098  
Cooling Degree Days 0 0  
Month to date cooling degree days 0 0  
Year to date cooling degree days 0 0  
Growing Degree Days 4 (Base 50)    
Moisture  
Dew Point 22 °F    
Average Humidity 32    
Maximum Humidity 52    
Minimum Humidity 12    
Precipitation  
Precipitation 0.00 in 0.04 in 1.60 in (1933)
Month to date precipitation 0.03 0.62  
Year to date precipitation 2.09 1.40  
Sea Level Pressure  
Sea Level Pressure 29.85 in    
Wind  
Wind Speed 13 mph (SSE)    
Max Wind Speed 21 mph    
Max Gust Speed 26 mph    
Visibility 10 miles    
Events      
T = Trace of Precipitation, MM = Missing Value Source: NWS Daily Summary

Daily Weather History Graph

Daily Weather History Graph

Search for Another Location

Airport or City:

Trip Planner

Search our weather history database for the weather conditions in past years. The results will help you decide how hot, cold, wet, or windy it might be!

Date:

Astronomy

Mar. 22, 2012 Rise Set
Actual Time 7:00 AM MDT 7:17 PM MDT
Civil Twilight 6:31 AM MDT 7:46 PM MDT
Nautical Twilight 5:57 AM MDT 8:21 PM MDT
Astronomical Twilight 5:22 AM MDT 8:56 PM MDT
Moon 6:39 AM MDT (3/22) 7:48 PM MDT (3/22)
Length of Visible Light 13h 15m
Length of Day
12h 17m
New Moon, 0% of the Moon is Illuminated
Mar 22
New Moon
Mar 30
First Quarter
Apr 6
Full
Apr 13
Last Quarter
Apr 21
New

Hourly Weather History & Observations

Time (MDT) Temp. Windchill Dew Point Humidity Pressure Visibility Wind Dir Wind Speed Gust Speed Precip Events Conditions
12:53 AM 45.0 °F 39.3 °F 18.0 °F 34% 29.91 in 10.0 mi South 11.5 mph - N/A   Clear
1:53 AM 43.0 °F 35.1 °F 19.9 °F 40% 29.91 in 10.0 mi South 17.3 mph - N/A   Clear
2:53 AM 42.1 °F 34.2 °F 21.0 °F 43% 29.90 in 10.0 mi South 16.1 mph - N/A   Clear
3:53 AM 37.9 °F 29.6 °F 21.0 °F 51% 29.91 in 10.0 mi South 13.8 mph - N/A   Clear
4:53 AM 37.9 °F 30.0 °F 21.9 °F 53% 29.90 in 10.0 mi South 12.7 mph - N/A   Clear
5:53 AM 41.0 °F 33.5 °F 23.0 °F 49% 29.95 in 10.0 mi SSE 13.8 mph - N/A   Clear
6:53 AM 41.0 °F 32.8 °F 23.0 °F 49% 29.91 in 10.0 mi South 16.1 mph - N/A   Clear
7:53 AM 42.1 °F 36.1 °F 24.1 °F 49% 29.93 in 10.0 mi SSE 10.4 mph - N/A   Clear
8:53 AM 52.0 °F - 26.1 °F 37% 29.90 in 10.0 mi South 8.1 mph - N/A   Clear
9:53 AM 55.0 °F - 28.0 °F 35% 29.90 in 10.0 mi SSE 10.4 mph - N/A   Clear
10:53 AM 63.0 °F - 24.1 °F 23% 29.86 in 10.0 mi SSW 12.7 mph - N/A   Clear
11:53 AM 66.0 °F - 21.9 °F 19% 29.83 in 10.0 mi SSW 12.7 mph - N/A   Clear
12:53 PM 68.0 °F - 19.9 °F 16% 29.81 in 10.0 mi South 17.3 mph - N/A   Clear
1:53 PM 70.0 °F - 19.9 °F 15% 29.78 in 10.0 mi SSE 18.4 mph - N/A   Clear
2:53 PM 71.1 °F - 16.0 °F 12% 29.76 in 10.0 mi South 11.5 mph - N/A   Clear
3:53 PM 71.1 °F - 15.1 °F 12% 29.77 in 10.0 mi SSE 11.5 mph - N/A   Clear
4:53 PM 71.1 °F - 19.0 °F 14% 29.76 in 10.0 mi SSE 11.5 mph - N/A   Clear
5:53 PM 69.1 °F - 19.9 °F 15% 29.77 in 10.0 mi SE 13.8 mph - N/A   Clear
6:53 PM 63.0 °F - 24.1 °F 23% 29.80 in 10.0 mi SE 11.5 mph - N/A   Clear
7:53 PM 48.0 °F - 24.1 °F 39% 29.85 in 10.0 mi South 9.2 mph - N/A   Clear
8:53 PM 45.0 °F 39.3 °F 25.0 °F 46% 29.85 in 10.0 mi South 11.5 mph - N/A   Clear
9:53 PM 46.0 °F 40.6 °F 24.1 °F 42% 29.85 in 10.0 mi South 11.5 mph - N/A   Clear
10:53 PM 48.9 °F - 28.0 °F 44% 29.83 in 10.0 mi South 13.8 mph - N/A   Clear
11:53 PM 48.0 °F - 28.0 °F 46% 29.82 in 10.0 mi South 13.8 mph - N/A   Clear